Location: Peterborough
(44.3091°N, 78.3197°W)
Time: 23:58:07
(UTC-04:00)

SR - Pass Details

Date: 24 March 2023
Orbit: 581 x 867 km, 66.7° (Epoch: 02 June)

Event Time Altitude Azimuth Distance (km) Brightness Sun altitude
Rises 03:09:25 0° 192° (SSW) 3,036 - -38.2°
Reaches altitude 10° 03:11:54 10° 185° (S) 2,078 - -37.9°
Maximum altitude 03:16:16 41° 116° (ESE) 915 - -37.5°
Exits shadow 03:19:38 15° 50° (NE) 1,677 ? -37.1°
Drops below altitude 10° 03:20:24 10° 46° (NE) 1,960 ? -37.0°
Sets 03:22:41 0° 39° (NE) 2,842 ? -36.8°
